Precipitable_Water
0.45 0.36 0.30 0.35 0.40 0.35 0.32 0.27 0.21 0.26 0.34 0.34 0.31 0.33 0.37 0.46 0.52 0.55 0.57 0.50 0.53 0.56 0.63 0.70 0.77 0.91 1.05 1.17 1.24 1.27 1.25 1.28 1.31 1.22 1.15 1.13 1.12 1.17 1.17 1.14 1.14 1.12 1.15 1.10
0.37 0.31 0.40 0.40 0.39 0.35 0.35 0.30 0.24 0.28 0.35 0.36 0.31 0.31 0.38 0.44 0.46 0.52 0.57 0.53 0.51 0.57 0.62 0.65 0.69 0.81 0.92 1.00 1.12 1.17 1.23 1.27 1.26 1.21 1.26 1.20 1.18 1.17 1.16 1.19 1.18 1.23 1.20 1.23
0.31 0.36 0.42 0.38 0.36 0.33 0.36 0.29 0.24 0.28 0.34 0.36 0.31 0.25 0.31 0.40 0.46 0.52 0.59 0.61 0.59 0.54 0.56 0.63 0.61 0.67 0.85 0.89 0.94 1.04 1.13 1.20 1.29 1.26 1.24 1.20 1.18 1.15 1.11 1.18 1.11 1.06 1.11 1.25
0.34 0.39 0.38 0.35 0.33 0.34 0.31 0.30 0.29 0.32 0.32 0.26 0.33 0.17 0.25 0.32 0.35 0.43 0.48 0.57 0.58 0.56 0.56 0.61 0.58 0.58 0.66 0.81 0.90 0.93 1.00 1.08 1.19 1.26 1.22 1.14 1.07 1.04 1.11 1.10 1.10 1.12 1.08 1.19
0.33 0.37 0.35 0.36 0.36 0.38 0.33 0.30 0.37 0.38 0.33 0.31 0.26 0.23 0.23 0.31 0.28 0.34 0.43 0.53 0.58 0.60 0.59 0.61 0.64 0.57 0.62 0.72 0.78 0.81 0.90 0.95 1.01 1.06 1.07 1.04 1.01 1.03 1.10 1.04 1.00 1.01 1.05 1.07
0.39 0.48 0.42 0.38 0.40 0.40 0.38 0.39 0.43 0.41 0.34 0.24 0.26 0.24 0.21 0.24 0.26 0.30 0.37 0.47 0.56 0.62 0.63 0.62 0.72 0.69 0.58 0.63 0.70 0.74 0.77 0.85 0.89 0.90 0.90 0.89 0.88 0.86 0.88 0.88 0.88 0.89 0.87 0.92
0.40 0.39 0.44 0.45 0.39 0.43 0.41 0.40 0.31 0.28 0.26 0.22 0.30 0.25 0.24 0.29 0.32 0.37 0.38 0.43 0.50 0.61 0.64 0.63 0.63 0.66 0.65 0.61 0.61 0.68 0.70 0.70 0.80 0.82 0.87 0.89 0.84 0.81 0.77 0.77 0.77 0.79 0.80 0.84
0.31 0.28 0.38 0.44 0.40 0.38 0.38 0.40 0.32 0.23 0.23 0.24 0.32 0.23 0.23 0.39 0.39 0.42 0.45 0.46 0.51 0.54 0.62 0.66 0.67 0.67 0.67 0.64 0.66 0.65 0.69 0.70 0.77 0.79 0.79 0.83 0.87 0.87 0.84 0.84 0.81 0.80 0.82 0.87
0.31 0.30 0.38 0.39 0.40 0.40 0.37 0.35 0.45 0.34 0.36 0.29 0.29 0.30 0.32 0.31 0.33 0.39 0.41 0.43 0.44 0.50 0.54 0.59 0.67 0.72 0.74 0.72 0.68 0.67 0.67 0.71 0.74 0.79 0.80 0.79 0.82 0.85 0.86 0.88 0.89 0.87 0.86 0.87
0.34 0.30 0.39 0.38 0.42 0.39 0.37 0.44 0.36 0.36 0.26 0.25 0.29 0.27 0.22 0.28 0.31 0.37 0.39 0.40 0.45 0.52 0.56 0.61 0.65 0.70 0.78 0.82 0.83 0.79 0.75 0.68 0.72 0.75 0.78 0.79 0.80 0.82 0.87 0.90 0.88 0.89 0.90 0.91
0.36 0.31 0.32 0.40 0.36 0.35 0.36 0.35 0.38 0.38 0.35 0.27 0.25 0.26 0.32 0.30 0.38 0.41 0.42 0.42 0.44 0.48 0.52 0.58 0.63 0.68 0.76 0.84 0.87 0.86 0.84 0.81 0.77 0.76 0.77 0.80 0.82 0.85 0.87 0.87 0.89 0.98 1.00 1.01
0.40 0.36 0.29 0.31 0.41 0.43 0.42 0.38 0.37 0.31 0.30 0.34 0.32 0.28 0.40 0.38 0.46 0.45 0.44 0.42 0.40 0.44 0.47 0.50 0.56 0.62 0.66 0.71 0.74 0.81 0.88 0.87 0.88 0.89 0.86 0.84 0.90 0.89 0.92 0.92 0.89 0.96 0.99 1.06
0.54 0.39 0.30 0.32 0.36 0.41 0.36 0.37 0.40 0.40 0.38 0.31 0.28 0.32 0.45 0.42 0.42 0.47 0.45 0.44 0.43 0.42 0.45 0.49 0.55 0.59 0.64 0.67 0.69 0.69 0.76 0.77 0.85 0.90 0.88 0.87 0.87 0.87 0.92 0.96 0.96 0.99 1.00 1.06
0.56 0.48 0.39 0.30 0.33 0.39 0.35 0.38 0.39 0.38 0.32 0.33 0.33 0.36 0.41 0.41 0.40 0.42 0.47 0.47 0.45 0.45 0.46 0.48 0.51 0.57 0.62 0.65 0.65 0.64 0.66 0.69 0.73 0.76 0.78 0.77 0.82 0.86 0.87 0.96 1.04 1.07 1.11 1.09
0.49 0.38 0.46 0.45 0.45 0.44 0.40 0.39 0.40 0.36 0.38 0.33 0.37 0.38 0.43 0.44 0.43 0.42 0.45 0.47 0.51 0.51 0.50 0.48 0.52 0.54 0.59 0.64 0.66 0.68 0.66 0.65 0.69 0.69 0.69 0.67 0.74 0.84 0.92 0.94 1.03 1.14 1.20 1.14
0.42 0.35 0.41 0.39 0.44 0.42 0.38 0.42 0.42 0.41 0.41 0.39 0.40 0.39 0.50 0.50 0.51 0.48 0.46 0.46 0.48 0.52 0.55 0.53 0.48 0.51 0.55 0.59 0.61 0.64 0.66 0.67 0.71 0.66 0.64 0.66 0.69 0.79 0.86 0.97 1.04 1.13 1.17 1.19
0.39 0.35 0.32 0.27 0.38 0.37 0.29 0.39 0.42 0.43 0.44 0.41 0.35 0.42 0.49 0.49 0.51 0.51 0.52 0.52 0.51 0.52 0.55 0.57 0.55 0.53 0.54 0.56 0.61 0.61 0.63 0.73 0.73 0.69 0.69 0.72 0.71 0.74 0.82 0.95 1.02 1.05 1.12 1.15
0.37 0.40 0.36 0.29 0.32 0.24 0.38 0.43 0.44 0.41 0.43 0.46 0.46 0.48 0.50 0.49 0.52 0.55 0.56 0.53 0.53 0.54 0.52 0.55 0.56 0.55 0.55 0.56 0.62 0.65 0.67 0.72 0.73 0.72 0.72 0.75 0.71 0.79 0.88 0.93 0.97 1.03 1.07 1.08
0.38 0.41 0.33 0.25 0.23 0.27 0.31 0.40 0.37 0.39 0.37 0.48 0.46 0.47 0.48 0.52 0.50 0.49 0.55 0.56 0.53 0.54 0.51 0.50 0.55 0.57 0.57 0.58 0.64 0.69 0.69 0.72 0.74 0.73 0.75 0.82 0.75 0.87 0.92 0.93 0.92 0.96 0.98 1.01
0.32 0.42 0.32 0.29 0.21 0.16 0.24 0.37 0.45 0.38 0.22 0.41 0.50 0.50 0.49 0.50 0.40 0.45 0.55 0.59 0.58 0.56 0.56 0.53 0.56 0.61 0.61 0.60 0.66 0.66 0.71 0.75 0.73 0.78 0.78 0.87 0.86 0.87 0.86 0.91 0.91 0.95 0.97 0.95
0.23 0.25 0.24 0.24 0.21 0.23 0.33 0.34 0.43 0.23 0.23 0.42 0.47 0.56 0.57 0.51 0.53 0.55 0.59 0.58 0.62 0.62 0.60 0.62 0.60 0.59 0.61 0.66 0.70 0.68 0.74 0.75 0.79 0.84 0.84 0.95 0.91 0.88 0.88 0.88 0.89 0.86 0.85 0.85
0.25 0.23 0.23 0.26 0.22 0.13 0.34 0.32 0.24 0.35 0.46 0.55 0.55 0.56 0.57 0.62 0.61 0.61 0.59 0.58 0.61 0.63 0.63 0.68 0.62 0.65 0.70 0.74 0.75 0.73 0.72 0.74 0.80 0.86 0.90 0.96 0.95 0.89 0.89 0.87 0.85 0.84 0.80 0.79
0.18 0.24 0.22 0.25 0.19 0.30 0.37 0.34 0.35 0.39 0.38 0.43 0.59 0.61 0.64 0.65 0.63 0.65 0.63 0.63 0.61 0.60 0.63 0.70 0.68 0.69 0.71 0.75 0.75 0.69 0.75 0.84 0.89 0.91 0.91 0.90 0.86 0.86 0.83 0.80 0.76 0.75 0.79 0.79
0.30 0.35 0.26 0.24 0.24 0.26 0.31 0.36 0.39 0.43 0.43 0.47 0.50 0.59 0.61 0.64 0.65 0.65 0.67 0.66 0.66 0.64 0.65 0.73 0.77 0.72 0.73 0.78 0.82 0.84 0.88 0.93 0.96 0.96 0.93 0.89 0.86 0.82 0.81 0.81 0.80 0.81 0.81 0.79
0.30 0.33 0.29 0.26 0.30 0.32 0.34 0.41 0.45 0.44 0.50 0.52 0.52 0.56 0.61 0.62 0.60 0.69 0.71 0.71 0.71 0.74 0.74 0.79 0.78 0.82 0.80 0.83 0.91 0.94 0.94 0.94 0.89 0.88 0.85 0.83 0.82 0.81 0.80 0.81 0.82 0.81 0.80 0.76
0.40 0.35 0.29 0.24 0.37 0.35 0.34 0.44 0.48 0.49 0.49 0.53 0.54 0.57 0.61 0.63 0.65 0.65 0.67 0.75 0.74 0.77 0.80 0.78 0.81 0.86 0.85 0.88 0.89 0.91 0.93 0.92 0.90 0.84 0.81 0.80 0.79 0.78 0.77 0.75 0.73 0.78 0.77 0.76
Wind_Speed
21 19 20 19 16 14 12 11 12 13 12 10 12 13 14 11 10 9 9 7 7 5 3 3 4 4 2 10 17 17 18 20 21 22 23 23 24 26 26 28 30 29 27 26
20 24 20 18 17 16 15 14 15 15 13 10 13 14 13 10 10 10 9 8 6 4 3 2 2 1 2 6 11 15 18 20 23 21 24 23 24 26 26 28 29 30 26 25
23 18 22 20 17 16 16 15 15 15 13 14 12 14 12 11 10 9 9 7 6 6 6 4 2 1 3 5 8 10 12 16 21 23 25 23 24 25 27 29 28 29 27 25
25 25 17 17 21 18 17 17 18 16 11 13 9 11 12 11 11 10 10 11 8 7 6 6 5 4 4 5 6 8 10 13 17 21 22 23 24 24 26 29 29 28 28 27
23 21 25 19 16 18 16 15 16 15 14 12 11 9 11 9 12 12 10 11 11 8 8 7 6 6 6 7 7 8 10 12 14 17 19 20 21 20 22 24 26 27 26 25
25 19 22 25 21 19 13 15 13 12 11 12 13 8 8 8 11 12 11 12 13 11 10 9 8 7 8 8 9 9 10 12 13 15 17 19 20 20 21 21 22 24 24 26
21 24 20 18 16 18 16 13 13 11 11 13 12 9 14 13 12 10 11 12 12 13 13 10 10 9 10 10 11 11 11 12 14 15 17 18 19 20 20 21 22 23 24 25
24 20 25 23 21 16 19 18 15 14 13 13 10 12 10 8 10 10 11 11 11 12 14 13 13 12 12 12 13 13 13 13 14 15 16 18 19 19 21 22 23 24 24 25
19 21 20 22 24 24 19 18 18 14 13 12 14 14 14 14 12 9 8 8 11 11 13 14 14 14 14 14 15 15 15 15 16 16 17 18 19 19 20 21 22 23 25 25
21 17 18 19 19 24 23 19 15 16 14 14 14 13 12 11 11 11 10 10 11 11 13 14 15 16 16 16 16 17 18 18 18 18 19 20 20 21 22 23 25 25 25 26
22 19 17 16 20 20 22 21 19 16 16 16 15 15 14 15 12 11 12 13 12 11 13 15 16 17 17 18 19 19 19 20 20 22 22 22 23 24 24 26 27 27 28 29
21 17 21 25 21 18 20 23 24 22 20 18 17 19 14 13 13 12 13 13 13 12 13 13 14 14 15 16 19 21 22 22 23 23 25 26 25 26 29 29 30 30 31 32
13 17 18 16 19 20 23 24 22 21 20 23 20 17 14 17 16 16 15 16 15 13 14 15 15 16 16 17 18 20 22 24 24 24 25 26 28 28 27 26 28 29 30 33
14 15 16 17 16 16 19 23 26 25 22 21 22 20 19 19 19 19 18 18 18 16 15 17 17 17 17 17 17 17 19 20 21 24 26 27 28 30 30 29 29 29 30 31
15 18 15 16 15 19 25 23 21 26 25 25 23 23 22 23 23 23 22 22 21 20 19 18 20 19 18 18 19 20 20 20 20 20 22 26 29 30 31 31 33 32 30 30
17 17 17 18 17 16 19 23 25 26 24 26 26 26 23 23 23 22 24 24 25 25 23 22 22 23 23 22 22 22 22 21 21 21 21 22 25 28 30 32 32 33 33 32
21 19 16 18 17 18 16 16 20 24 28 27 30 27 25 23 23 24 25 25 26 26 26 25 25 25 24 25 24 23 23 22 22 23 23 23 23 25 27 28 29 31 32 32
25 21 19 19 16 18 19 18 18 20 22 24 26 27 28 26 24 24 25 24 26 25 26 27 27 26 25 24 25 25 25 25 24 24 23 24 23 24 25 26 27 28 29 30
31 25 22 20 21 22 23 17 17 17 22 20 23 26 30 33 27 26 24 22 22 24 24 25 26 26 25 25 25 26 25 25 26 25 25 25 24 24 24 25 26 26 27 28
27 28 25 23 22 24 22 19 21 23 28 19 23 23 24 25 29 29 26 26 25 24 23 23 24 27 27 26 25 25 26 25 26 26 26 25 25 24 25 25 26 27 28 29
16 21 27 25 26 28 28 25 24 21 25 22 23 23 20 19 22 26 27 28 28 27 25 26 25 26 27 26 25 25 24 26 25 25 25 26 25 26 26 26 26 26 26 26
12 13 16 18 19 26 24 23 22 23 25 26 24 24 26 24 23 22 23 24 26 28 27 26 24 23 23 23 24 23 24 23 24 24 25 25 26 26 26 26 26 26 26 26
14 15 14 16 17 18 20 22 26 25 26 24 26 29 28 29 25 25 25 27 28 29 28 27 25 23 22 21 22 22 23 23 24 24 24 24 24 25 26 26 26 26 26 26
17 16 16 16 17 20 22 25 25 27 30 28 26 26 25 29 29 28 27 24 23 25 26 25 24 22 22 22 23 24 23 23 23 22 22 23 23 23 24 25 25 26 27 27
19 16 18 21 20 22 20 22 25 26 27 28 27 25 24 24 24 25 25 23 21 19 20 22 23 24 24 23 24 23 23 23 23 23 23 24 24 24 24 24 25 26 28 29
19 19 20 22 21 22 23 23 22 23 23 23 22 20 19 18 20 21 20 24 21 19 17 18 20 22 23 23 23 23 23 23 23 23 23 24 24 24 25 25 26 26 28 29
Wind_Direction
232 232 232 232 238 240 248 257 258 258 268 288 287 281 274 266 267 272 272 268 261 267 289 323 345 12 119 191 203 205 205 207 204 206 199 200 202 201 202 199 200 203 206 208
231 234 231 233 236 238 248 258 259 263 267 270 286 283 278 260 266 266 258 255 254 249 246 273 320 36 125 169 191 207 210 208 210 202 202 203 202 202 202 203 204 204 206 212
229 236 226 229 234 236 244 244 246 247 279 281 288 284 273 269 270 261 250 254 253 239 229 227 233 198 155 160 174 190 198 202 203 208 205 207 206 210 209 209 209 211 213 218
233 232 231 232 234 231 246 238 242 253 266 273 285 285 275 266 265 256 251 241 243 234 221 219 217 206 184 176 178 177 180 188 195 200 205 206 209 210 209 210 213 215 217 215
232 225 224 228 231 228 242 234 235 247 254 271 271 280 273 273 265 258 251 240 233 229 218 214 213 207 196 180 176 174 175 179 181 186 191 193 195 197 201 205 209 211 209 210
228 227 224 231 233 231 231 236 242 250 250 259 262 255 278 258 258 258 249 239 233 226 223 219 217 208 203 193 186 180 179 180 180 182 186 191 195 197 199 201 204 208 212 216
227 228 229 227 225 226 225 230 240 252 249 252 259 259 261 275 267 253 251 244 235 224 219 217 211 209 206 203 197 194 193 193 193 193 196 197 200 204 207 210 214 217 219 220
221 229 223 228 224 223 223 223 227 238 246 255 253 256 263 270 261 266 257 250 226 219 218 220 216 215 214 211 209 205 204 203 203 204 207 210 213 215 218 219 222 224 226 228
219 232 229 227 225 219 228 226 234 240 255 259 252 266 274 273 270 265 259 231 220 223 220 223 220 219 220 219 218 216 215 215 215 215 216 218 220 222 224 226 227 229 232 235
223 227 226 228 222 226 225 225 230 241 238 249 257 260 252 272 268 261 253 237 234 233 228 231 226 225 228 228 227 226 224 224 225 225 226 228 229 231 232 233 234 235 237 240
222 225 228 220 220 218 223 229 233 236 239 244 253 259 250 253 255 258 249 239 243 246 243 235 229 231 234 233 232 231 230 231 232 234 234 234 237 239 240 241 239 240 243 246
220 226 229 234 231 226 228 231 231 235 242 249 251 252 247 249 252 258 250 245 249 250 244 233 227 233 232 237 237 237 236 237 239 240 240 242 244 246 242 246 242 247 249 251
223 227 232 244 235 234 233 233 234 239 242 242 248 256 253 256 256 257 252 252 252 256 246 236 237 240 242 244 244 241 238 240 242 243 244 245 245 245 246 247 245 250 252 253
227 226 227 228 233 233 234 235 235 236 242 245 247 255 256 255 255 256 251 252 254 254 252 248 246 244 245 246 242 237 238 242 244 246 247 248 248 248 247 250 250 252 255 257
235 230 235 240 246 246 245 244 241 236 243 245 252 252 256 253 252 252 256 256 253 253 259 252 246 243 249 247 244 243 244 245 247 250 253 253 252 251 251 252 251 252 255 258
241 235 238 244 253 259 252 248 248 247 248 252 255 258 260 257 256 258 257 260 257 257 256 258 250 250 250 249 248 246 245 248 248 254 258 260 257 254 253 253 253 253 253 257
242 236 239 243 252 263 248 250 253 254 252 250 254 256 264 262 255 255 259 260 257 258 257 254 257 253 250 251 246 245 247 247 251 256 260 263 263 258 255 254 254 254 254 255
239 237 241 245 249 247 239 263 254 258 262 260 261 256 256 258 261 261 259 264 259 260 262 258 256 252 252 252 248 249 251 251 255 259 261 262 265 260 258 257 256 256 256 255
233 236 239 243 244 252 257 255 261 262 266 269 268 266 260 255 257 259 256 256 260 262 265 262 255 251 253 254 252 250 251 253 255 260 264 263 266 262 260 260 260 260 258 257
230 236 239 243 246 249 250 256 266 268 262 276 281 278 275 258 251 254 256 259 262 265 267 265 257 252 252 255 254 251 250 252 258 262 265 263 265 264 263 264 264 263 262 261
228 233 237 244 250 255 254 261 265 263 266 272 276 276 276 268 261 263 263 261 264 264 269 266 260 256 256 253 252 249 251 256 258 261 264 262 264 266 266 266 265 264 263 261
226 229 238 240 251 259 253 262 256 262 270 267 271 270 268 269 270 267 268 266 266 263 266 264 257 259 256 251 250 251 253 256 259 262 263 263 265 267 267 266 266 264 262 260
242 236 241 239 249 260 258 263 267 268 266 273 269 273 264 260 266 271 271 273 269 266 265 262 258 255 253 251 251 252 256 258 261 263 264 265 267 268 268 266 265 264 261 262
246 246 249 257 262 266 273 275 275 270 264 266 269 268 263 264 262 267 272 275 276 268 262 257 252 249 250 254 257 257 257 259 262 262 264 266 268 269 270 268 267 264 265 265
247 249 254 261 270 277 273 284 283 279 272 262 262 263 262 262 266 263 266 271 270 271 262 251 247 252 255 260 260 259 257 259 262 264 266 268 269 269 269 271 271 270 270 269
254 256 257 263 271 274 278 284 286 281 278 269 268 260 266 266 269 271 270 262 266 262 262 257 255 257 259 259 258 262 262 262 263 267 269 271 270 272 272 272 273 277 275 273